TAPATFFF

Guest
Details From TAPA - Antigua V C Bird Intl
To TFFF - Le Lamentin
Flight Number -
Tags Routegen
Created
Modified
Stats Distance 190 nm / 352 km
Max Altitude 0 ft / 0 m
Waypoints 4
Social Downloads 10
Likes 0
Share VATSIM

Download

Looking for another format? Having issues loading an existing format? Contact us
Advertisement - Login to hide

Notes

None

Route

TAPA +17.05_-061.93 +14.51_-061.46 TFFF

ID Type Via Altitude (ft/m) Position (lat/lon) Dist (leg/tot) Name
O TAPA APT - 0 / 0 17.13024 / -61.80367 - / 0 nm
+17.05_-061.93 DME - 0 / 0 17.05411 / -61.93245 8 / 8 nm
+14.51_-061.46 DME - 0 / 0 14.51208 / -61.45990 155 / 163 nm
O TFFF APT - 0 / 0 14.58843 / -61.01831 26 / 189 nm

Altitude Profile

Advertisement - Login to hide

Weather


0- 5 10 15 20 25 30 35+ Temperature / °C

Clouds and Precipitation
Forecast for 2019-09-15 18:00 UTC. Updated 2 hours ago

Ground ~20,000 ft ~40,000 ft Winds

TAPA

Details ICAO TAPA (ANU)
Name Antigua - VC Bird Intl
Region Antigua and Barbuda
Timezone America/Antigua (UTC-4.0)
Stats Elevation 62 ft / 19 m (AMSL)
Location 17.136000° -61.793900°
Runways 1
Magnetic Variation 14.806° W

METAR

TAPA 151700Z 09009KT 060V130 9999 SCT016 30/24 Q1013 NOSIG

Decode

TAF

TAF TAF TAPA 151100Z 1512/1612 10011KT 9999 SCT018 TEMPO 1512/1518 4000 SHRA FEW012CB BKN015 PROB40 TEMPO 1609/1612 4000 SHRA FEW012CB BKN014

Decode

Departure Runways

ID Width Length Bearing (true/mag) Surface Threshold Overrun Markings Lighting
07 145 ft / 44 m 9,978 ft / 3,041 m 58.24° / 73.05° ASPHALT 1,640 ft / 500 m 0 ft / 0 m PREC-APP CENTERLINE EDGE THRESHOLD
25 145 ft / 44 m 9,978 ft / 3,041 m 238.25° / 253.05° ASPHALT 981 ft / 299 m 0 ft / 0 m PREC-APP CENTERLINE EDGE THRESHOLD

TFFF

Details ICAO TFFF (FDF)
Name Martinique Aime Cesaire Airport
Region France (Guadeloupe, Martinique, Saint Barthélemy, Saint Martin)
Timezone America/Martinique (UTC-4.0)
Stats Elevation 16 ft / 5 m (AMSL)
Location 14.590800° -61.004600°
Runways 1
Magnetic Variation 15.111° W

METAR

TFFF 151730Z AUTO 10013KT 9999 SCT028 BKN036 BKN052 32/26 Q1011 TEMPO 09015G25KT

Decode

TAF

TAF TFFF 151100Z 1512/1612 09012KT 9999 SCT025 SCT040 TEMPO 1515/1521 09015G25KT TEMPO 1523/1612 4000 SHRA SCT015CB BKN020TCU PROB30 TEMPO 1603/1612 VRB18G30KT 2000 TSRA SCT007 BKN012CB

Decode

Destination Runways

ID Width Length Bearing (true/mag) Surface Threshold Overrun Markings Lighting
10 148 ft / 45 m 9,852 ft / 3,003 m 79.94° / 95.05° ASPHALT 0 ft / 0 m 52 ft / 16 m PREC-APP CENTERLINE EDGE THRESHOLD ALSF-II
28 148 ft / 45 m 9,852 ft / 3,003 m 259.95° / 275.06° ASPHALT 817 ft / 249 m 994 ft / 303 m PREC-APP CENTERLINE EDGE THRESHOLD ALSF-II

Approach Navaids

Runway Type Ident Frequency Range Bearing (true/mag) Slope Elevation
10 GS FF 109.90 MHz 10 nm / 19 km 79.93° / 95.04 ° 3.00° 16 ft / 5 m (AMSL)
10 LOC-ILS FF 109.90 MHz 18 nm / 33 km 79.93° / 95.04 ° - 16 ft / 5 m (AMSL)

Popular Alternatives